| time (UTC) | temp C | wind direction | speed KPH | gust KPH | rain 1hr cm | rain 24hr cm | rain mn cm | humidity % | barometer mb |
| 20260510120647 | 15 | 150 | 4.8 | 8.0 | 0.00 | 0.00 | 0.00 | 96 | 1015.9 |
| 20260510120147 | 15 | 151 | 4.8 | 8.0 | 0.00 | 0.00 | 0.00 | 96 | 1015.7 |
| 20260510115617 | 14 | 148 | 4.8 | 8.0 | 0.00 | 0.00 | 0.00 | 96 | 1015.7 |
| 20260510115116 | 14 | 159 | 1.6 | 4.8 | 0.00 | 0.00 | 0.00 | 95 | 1015.9 |
| 20260510114548 | 14 | 152 | 3.2 | 4.8 | 0.00 | 0.00 | 0.00 | 95 | 1015.4 |
| 20260510114046 | 14 | 155 | 1.6 | 4.8 | 0.00 | 0.00 | 0.00 | 95 | 1015.6 |
| 20260510113516 | 14 | 173 | 3.2 | 4.8 | 0.00 | 0.00 | 0.00 | 95 | 1015.6 |
| 20260510113019 | 14 | 145 | 4.8 | 8.0 | 0.00 | 0.00 | 0.00 | 95 | 1015.2 |
| 20260510112448 | 14 | 154 | 3.2 | 4.8 | 0.00 | 0.00 | 0.00 | 95 | 1015.0 |
| 20260510111919 | 14 | 191 | 3.2 | 3.2 | 0.00 | 0.00 | 0.00 | 95 | 1015.0 |
| 20260510110348 | 14 | 28 | 1.6 | 8.0 | 0.00 | 0.00 | 0.00 | 94 | 1014.8 |
| 20260510105847 | 14 | 106 | 3.2 | 8.0 | 0.00 | 0.00 | 0.00 | 94 | 1014.9 |
| 20260510105316 | 14 | 126 | 3.2 | 3.2 | 0.00 | 0.00 | 0.00 | 94 | 1014.7 |
| 20260510104818 | 15 | 137 | 1.6 | 3.2 | 0.00 | 0.00 | 0.00 | 93 | 1014.7 |
| 20260510104317 | 15 | 120 | 4.8 | 8.0 | 0.00 | 0.00 | 0.00 | 93 | 1014.6 |
| 20260510103747 | 15 | 202 | 3.2 | 4.8 | 0.00 | 0.00 | 0.00 | 93 | 1014.8 |
| 20260510103246 | 15 | 130 | 4.8 | 8.0 | 0.00 | 0.00 | 0.00 | 92 | 1014.6 |
| 20260510102746 | 15 | 155 | 3.2 | 3.2 | 0.00 | 0.00 | 0.00 | 91 | 1014.6 |
| 20260510102248 | 15 | 173 | 3.2 | 4.8 | 0.00 | 0.00 | 0.00 | 91 | 1014.6 |
| 20260510101748 | 15 | 175 | 4.8 | 8.0 | 0.00 | 0.00 | 0.00 | 90 | 1014.6 |
| 20260510100716 | 16 | 153 | 3.2 | 3.2 | 0.00 | 0.00 | 0.00 | 88 | 1014.2 |
| 20260510100218 | 16 | 149 | 0.0 | 1.6 | 0.00 | 0.00 | 0.00 | 89 | 1014.1 |
| 20260510095646 | 16 | 230 | 0.0 | 1.6 | 0.00 | 0.00 | 0.00 | 89 | 1014.1 |
| 20260510095146 | 16 | 163 | 0.0 | 1.6 | 0.00 | 0.00 | 0.00 | 88 | 1014.3 |
| 20260510094616 | 16 | 240 | 0.0 | 1.6 | 0.00 | 0.00 | 0.00 | 89 | 1013.9 |
| 20260510094048 | 16 | 221 | 1.6 | 4.8 | 0.00 | 0.00 | 0.00 | 89 | 1013.9 |
| 20260510093516 | 16 | 282 | 1.6 | 3.2 | 0.00 | 0.00 | 0.00 | 89 | 1013.5 |
| 20260510092417 | 16 | 84 | 1.6 | 3.2 | 0.00 | 0.00 | 0.00 | 88 | 1013.5 |
| 20260510091850 | 16 | 195 | 0.0 | 3.2 | 0.00 | 0.00 | 0.00 | 87 | 1013.5 |
| 20260510091318 | 16 | 329 | 3.2 | 4.8 | 0.00 | 0.00 | 0.00 | 87 | 1013.5 |
| 20260510090746 | 16 | 225 | 1.6 | 1.6 | 0.00 | 0.00 | 0.00 | 87 | 1013.5 |
| 20260510090247 | 17 | 276 | 1.6 | 4.8 | 0.00 | 0.00 | 0.00 | 86 | 1013.5 |
| 20260510085717 | 17 | 284 | 3.2 | 4.8 | 0.00 | 0.00 | 0.00 | 86 | 1013.5 |
| 20260510085146 | 17 | 298 | 3.2 | 4.8 | 0.00 | 0.00 | 0.00 | 86 | 1013.5 |
| 20260510084617 | 17 | 278 | 3.2 | 8.0 | 0.00 | 0.00 | 0.00 | 86 | 1013.5 |
| 20260510084116 | 17 | 256 | 4.8 | 8.0 | 0.00 | 0.00 | 0.00 | 86 | 1013.4 |
| 20260510083616 | 17 | 285 | 3.2 | 8.0 | 0.00 | 0.00 | 0.00 | 86 | 1013.7 |
| 20260510083116 | 17 | 276 | 3.2 | 8.0 | 0.00 | 0.00 | 0.00 | 85 | 1013.5 |
| 20260510082546 | 17 | 262 | 3.2 | 4.8 | 0.00 | 0.00 | 0.00 | 85 | 1013.3 |
| 20260510082016 | 17 | 271 | 3.2 | 4.8 | 0.00 | 0.00 | 0.00 | 85 | 1013.2 |
| 20260510081516 | 17 | 256 | 4.8 | 8.0 | 0.00 | 0.00 | 0.00 | 85 | 1013.4 |
| 20260510080947 | 17 | 319 | 1.6 | 8.0 | 0.00 | 0.00 | 0.00 | 85 | 1013.0 |
| 20260510080416 | 17 | 310 | 3.2 | 8.0 | 0.00 | 0.00 | 0.00 | 85 | 1013.1 |
| 20260510075849 | 17 | 240 | 1.6 | 4.8 | 0.00 | 0.00 | 0.00 | 85 | 1013.1 |
| 20260510075346 | 16 | 240 | 4.8 | 8.0 | 0.00 | 0.00 | 0.00 | 86 | 1012.9 |
| 20260510074821 | 16 | 244 | 1.6 | 3.2 | 0.00 | 0.00 | 0.00 | 85 | 1013.0 |
| 20260510074246 | 16 | 226 | 3.2 | 4.8 | 0.00 | 0.00 | 0.00 | 85 | 1012.9 |
| 20260510073748 | 17 | 201 | 1.6 | 3.2 | 0.00 | 0.00 | 0.00 | 84 | 1012.9 |
| 20260510071649 | 17 | 195 | 1.6 | 4.8 | 0.00 | 0.00 | 0.00 | 83 | 1012.7 |
| 20260510071116 | 17 | 218 | 3.2 | 4.8 | 0.00 | 0.00 | 0.00 | 83 | 1012.8 |
| 20260510070616 | 17 | 222 | 4.8 | 8.0 | 0.00 | 0.00 | 0.00 | 82 | 1012.7 |
| 20260510070047 | 17 | 229 | 4.8 | 8.0 | 0.00 | 0.00 | 0.00 | 81 | 1012.8 |
| 20260510065518 | 17 | 221 | 4.8 | 8.0 | 0.00 | 0.00 | 0.00 | 81 | 1012.7 |
| 20260510065016 | 17 | 206 | 4.8 | 8.0 | 0.00 | 0.00 | 0.00 | 80 | 1012.7 |
| 20260510064446 | 17 | 199 | 3.2 | 4.8 | 0.00 | 0.00 | 0.00 | 78 | 1012.9 |
| 20260510063946 | 17 | 214 | 3.2 | 4.8 | 0.00 | 0.00 | 0.00 | 78 | 1012.7 |
| 20260510063416 | 17 | 216 | 3.2 | 3.2 | 0.00 | 0.00 | 0.00 | 77 | 1012.9 |
| 20260510062916 | 17 | 216 | 3.2 | 4.8 | 0.00 | 0.00 | 0.00 | 76 | 1012.9 |
| 20260510062416 | 16 | 210 | 3.2 | 8.0 | 0.00 | 0.00 | 0.00 | 76 | 1012.9 |
| 20260510061846 | 16 | 197 | 3.2 | 4.8 | 0.00 | 0.00 | 0.00 | 74 | 1012.9 |
| 20260510061316 | 16 | 179 | 1.6 | 3.2 | 0.00 | 0.00 | 0.00 | 72 | 1012.9 |
| 20260510060816 | 16 | 193 | 3.2 | 4.8 | 0.00 | 0.00 | 0.00 | 69 | 1012.6 |
| 20260510060316 | 16 | 190 | 3.2 | 3.2 | 0.00 | 0.00 | 0.00 | 68 | 1013.1 |
| 20260510055819 | 16 | 193 | 1.6 | 3.2 | 0.00 | 0.00 | 0.00 | 68 | 1012.9 |
| 20260510055246 | 16 | 205 | 3.2 | 3.2 | 0.00 | 0.00 | 0.00 | 68 | 1012.9 |
| 20260510054146 | 16 | 150 | 0.0 | 1.6 | 0.00 | 0.00 | 0.00 | 68 | 1013.0 |
| 20260510053646 | 16 | 144 | 0.0 | 1.6 | 0.00 | 0.00 | 0.00 | 68 | 1013.0 |
| 20260510052116 | 16 | 149 | 1.6 | 1.6 | 0.00 | 0.00 | 0.00 | 67 | 1013.1 |
| 20260510051616 | 16 | 186 | 1.6 | 3.2 | 0.00 | 0.00 | 0.00 | 68 | 1013.2 |
| 20260510051046 | 16 | 134 | 0.0 | 1.6 | 0.00 | 0.00 | 0.00 | 67 | 1013.1 |
| 20260510050516 | 16 | 211 | 1.6 | 3.2 | 0.00 | 0.00 | 0.00 | 67 | 1012.9 |
| 20260510050018 | 16 | 60 | 0.0 | 1.6 | 0.00 | 0.00 | 0.00 | 67 | 1012.9 |
| 20260510045516 | 16 | 213 | 3.2 | 4.8 | 0.00 | 0.00 | 0.00 | 66 | 1012.9 |
| 20260510044446 | 16 | 168 | 1.6 | 3.2 | 0.00 | 0.00 | 0.00 | 65 | 1012.9 |
| 20260510043946 | 16 | 142 | 1.6 | 3.2 | 0.00 | 0.00 | 0.00 | 65 | 1012.9 |
| 20260510043446 | 16 | 151 | 1.6 | 1.6 | 0.00 | 0.00 | 0.00 | 65 | 1012.7 |
| 20260510042946 | 16 | 146 | 1.6 | 1.6 | 0.00 | 0.00 | 0.00 | 65 | 1012.7 |
| 20260510042446 | 17 | 143 | 1.6 | 3.2 | 0.00 | 0.00 | 0.00 | 64 | 1012.9 |
| 20260510041946 | 17 | 148 | 1.6 | 3.2 | 0.00 | 0.00 | 0.00 | 63 | 1012.5 |
| 20260510041446 | 17 | 146 | 1.6 | 1.6 | 0.00 | 0.00 | 0.00 | 63 | 1012.7 |
| 20260510040945 | 17 | 134 | 1.6 | 1.6 | 0.00 | 0.00 | 0.00 | 62 | 1012.7 |
| 20260510040446 | 17 | 137 | 0.0 | 0.0 | 0.00 | 0.00 | 0.00 | 64 | 1012.9 |
| 20260510034317 | 18 | 146 | 1.6 | 1.6 | 0.00 | 0.00 | 0.00 | 58 | 1012.5 |
| 20260510033316 | 18 | 170 | 1.6 | 1.6 | 0.00 | 0.00 | 0.00 | 58 | 1012.4 |
| 20260510032815 | 18 | 186 | 1.6 | 3.2 | 0.00 | 0.00 | 0.00 | 58 | 1012.5 |
| 20260510032246 | 18 | 146 | 1.6 | 1.6 | 0.00 | 0.00 | 0.00 | 57 | 1012.5 |
| 20260510031716 | 18 | 163 | 1.6 | 3.2 | 0.00 | 0.00 | 0.00 | 56 | 1012.5 |
| 20260510031216 | 18 | 161 | 1.6 | 1.6 | 0.00 | 0.00 | 0.00 | 57 | 1012.5 |
| 20260510030717 | 18 | 158 | 1.6 | 3.2 | 0.00 | 0.00 | 0.00 | 57 | 1012.4 |
| 20260510030145 | 18 | 154 | 1.6 | 3.2 | 0.00 | 0.00 | 0.00 | 59 | 1012.5 |
| 20260510025645 | 18 | 153 | 1.6 | 3.2 | 0.00 | 0.00 | 0.00 | 58 | 1012.2 |
| 20260510025116 | 18 | 141 | 1.6 | 1.6 | 0.00 | 0.00 | 0.00 | 58 | 1012.1 |
| 20260510024617 | 18 | 143 | 0.0 | 0.0 | 0.00 | 0.00 | 0.00 | 58 | 1012.1 |
| 20260510024046 | 19 | 164 | 0.0 | 1.6 | 0.00 | 0.00 | 0.00 | 57 | 1011.9 |
| 20260510023545 | 20 | 129 | 0.0 | 0.0 | 0.00 | 0.00 | 0.00 | 54 | 1011.9 |
| 20260510023045 | 20 | 232 | 0.0 | 0.0 | 0.00 | 0.00 | 0.00 | 53 | 1011.9 |
| 20260510022546 | 20 | 222 | 1.6 | 1.6 | 0.00 | 0.00 | 0.00 | 53 | 1011.9 |
| 20260510022045 | 20 | 247 | 0.0 | 1.6 | 0.00 | 0.00 | 0.00 | 53 | 1011.9 |
| 20260510021515 | 20 | 172 | 0.0 | 0.0 | 0.00 | 0.00 | 0.00 | 52 | 1011.5 |
| 20260510021016 | 20 | 250 | 1.6 | 3.2 | 0.00 | 0.00 | 0.00 | 52 | 1011.3 |
| 20260510020446 | 20 | 289 | 0.0 | 1.6 | 0.00 | 0.00 | 0.00 | 52 | 1011.5 |
| 20260510015916 | 20 | 353 | 0.0 | 1.6 | 0.00 | 0.00 | 0.00 | 53 | 1011.3 |
| 20260510015348 | 20 | 51 | 0.0 | 1.6 | 0.00 | 0.00 | 0.00 | 52 | 1011.2 |
| 20260510014847 | 20 | 262 | 0.0 | 1.6 | 0.00 | 0.00 | 0.00 | 51 | 1011.2 |
| 20260510014315 | 21 | 44 | 0.0 | 0.0 | 0.00 | 0.00 | 0.00 | 52 | 1011.0 |
| 20260510013815 | 21 | 284 | 0.0 | 0.0 | 0.00 | 0.00 | 0.00 | 50 | 1011.0 |
| 20260510013315 | 21 | 243 | 0.0 | 0.0 | 0.00 | 0.00 | 0.00 | 49 | 1010.8 |
| 20260510012749 | 21 | 224 | 0.0 | 0.0 | 0.00 | 0.00 | 0.00 | 49 | 1010.7 |
| 20260510012218 | 22 | 218 | 0.0 | 0.0 | 0.00 | 0.00 | 0.00 | 49 | 1010.7 |
| 20260510011715 | 22 | 200 | 0.0 | 0.0 | 0.00 | 0.00 | 0.00 | 47 | 1010.6 |
| 20260510011216 | 22 | 230 | 0.0 | 1.6 | 0.00 | 0.00 | 0.00 | 46 | 1010.5 |
| 20260510010645 | 22 | 270 | 1.6 | 1.6 | 0.00 | 0.00 | 0.00 | 47 | 1010.6 |
| 20260510010145 | 22 | 241 | 0.0 | 1.6 | 0.00 | 0.00 | 0.00 | 47 | 1010.2 |
| 20260510005616 | 22 | 266 | 0.0 | 0.0 | 0.00 | 0.00 | 0.00 | 47 | 1010.2 |
| 20260510005115 | 23 | 280 | 0.0 | 1.6 | 0.00 | 0.00 | 0.00 | 46 | 1010.2 |
| 20260510004615 | 23 | 267 | 1.6 | 1.6 | 0.00 | 0.00 | 0.00 | 45 | 1010.0 |
| 20260510004045 | 24 | 279 | 1.6 | 3.2 | 0.00 | 0.00 | 0.00 | 43 | 1010.2 |
| 20260510003515 | 25 | 299 | 1.6 | 3.2 | 0.00 | 0.00 | 0.00 | 42 | 1009.8 |
| 20260510003016 | 25 | 285 | 1.6 | 1.6 | 0.00 | 0.00 | 0.00 | 40 | 1009.8 |
| 20260510002446 | 26 | 285 | 1.6 | 3.2 | 0.00 | 0.00 | 0.00 | 38 | 1009.8 |
| 20260510001946 | 26 | 233 | 0.0 | 1.6 | 0.00 | 0.00 | 0.00 | 38 | 1009.3 |
| 20260510001445 | 26 | 89 | 0.0 | 0.0 | 0.00 | 0.00 | 0.00 | 37 | 1009.5 |
| 20260510000916 | 26 | 271 | 0.0 | 1.6 | 0.00 | 0.00 | 0.00 | 36 | 1009.7 |
| 20260510000419 | 27 | 271 | 1.6 | 3.2 | 0.00 | 0.00 | 0.00 | 36 | 1009.6 |
| 20260509235917 | 27 | 243 | 1.6 | 3.2 | 0.00 | 0.00 | 0.00 | 36 | 1009.5 |
| 20260509235345 | 27 | 224 | 1.6 | 3.2 | 0.00 | 0.00 | 0.00 | 36 | 1009.3 |
| 20260509234315 | 27 | 256 | 1.6 | 3.2 | 0.00 | 0.00 | 0.00 | 34 | 1009.3 |
| 20260509233747 | 27 | 302 | 0.0 | 3.2 | 0.00 | 0.00 | 0.00 | 35 | 1009.5 |
| 20260509233216 | 27 | 275 | 3.2 | 3.2 | 0.00 | 0.00 | 0.00 | 34 | 1009.3 |
| 20260509232715 | 27 | 163 | 0.0 | 1.6 | 0.00 | 0.00 | 0.00 | 35 | 1009.1 |
| 20260509232145 | 27 | 301 | 3.2 | 4.8 | 0.00 | 0.00 | 0.00 | 35 | 1009.1 |
| 20260509231646 | 27 | 247 | 1.6 | 4.8 | 0.00 | 0.00 | 0.00 | 35 | 1009.1 |
| 20260509231145 | 27 | 260 | 0.0 | 3.2 | 0.00 | 0.00 | 0.00 | 35 | 1009.1 |
| 20260509230648 | 27 | 281 | 3.2 | 4.8 | 0.00 | 0.00 | 0.00 | 35 | 1009.1 |
| 20260509230145 | 26 | 256 | 3.2 | 3.2 | 0.00 | 0.00 | 0.00 | 36 | 1009.0 |
| 20260509225646 | 26 | 313 | 1.6 | 3.2 | 0.00 | 0.00 | 0.00 | 38 | 1009.1 |
| 20260509225146 | 25 | 254 | 1.6 | 3.2 | 0.00 | 0.00 | 0.00 | 38 | 1009.1 |
| 20260509224615 | 25 | 298 | 3.2 | 4.8 | 0.00 | 0.00 | 0.00 | 37 | 1009.0 |
| 20260509224047 | 26 | 290 | 3.2 | 8.0 | 0.00 | 0.00 | 0.00 | 36 | 1009.0 |
| 20260509223545 | 27 | 245 | 3.2 | 4.8 | 0.00 | 0.00 | 0.00 | 37 | 1008.8 |
| 20260509223015 | 27 | 220 | 0.0 | 0.0 | 0.00 | 0.00 | 0.00 | 39 | 1008.8 |
| 20260509222515 | 27 | 211 | 0.0 | 1.6 | 0.00 | 0.00 | 0.00 | 41 | 1009.0 |
| 20260509221945 | 26 | 224 | 1.6 | 3.2 | 0.00 | 0.00 | 0.00 | 43 | 1009.1 |
| 20260509221445 | 26 | 243 | 1.6 | 3.2 | 0.00 | 0.00 | 0.00 | 39 | 1009.0 |
| 20260509220915 | 27 | 201 | 1.6 | 1.6 | 0.00 | 0.00 | 0.00 | 40 | 1009.1 |
| 20260509220415 | 27 | 225 | 3.2 | 4.8 | 0.00 | 0.00 | 0.00 | 39 | 1008.8 |
| 20260509215846 | 27 | 221 | 1.6 | 3.2 | 0.00 | 0.00 | 0.00 | 41 | 1008.7 |
| 20260509215347 | 27 | 235 | 3.2 | 4.8 | 0.00 | 0.00 | 0.00 | 41 | 1009.0 |
| 20260509214845 | 27 | 242 | 3.2 | 8.0 | 0.00 | 0.00 | 0.00 | 40 | 1008.9 |
| 20260509213752 | 27 | 292 | 3.2 | 4.8 | 0.00 | 0.00 | 0.00 | 38 | 1009.1 |
| 20260509213215 | 27 | 246 | 3.2 | 8.0 | 0.00 | 0.00 | 0.00 | 39 | 1008.9 |
| 20260509212645 | 27 | 251 | 3.2 | 4.8 | 0.00 | 0.00 | 0.00 | 39 | 1008.7 |
| 20260509212115 | 27 | 302 | 3.2 | 8.0 | 0.00 | 0.00 | 0.00 | 37 | 1008.8 |
| 20260509211615 | 27 | 249 | 4.8 | 9.7 | 0.00 | 0.00 | 0.00 | 37 | 1008.5 |
| 20260509211045 | 27 | 11 | 1.6 | 3.2 | 0.00 | 0.00 | 0.00 | 41 | 1008.7 |
| 20260509210545 | 26 | 244 | 1.6 | 3.2 | 0.00 | 0.00 | 0.00 | 47 | 1008.8 |
| 20260509210015 | 26 | 72 | 0.0 | 0.0 | 0.00 | 0.00 | 0.00 | 49 | 1008.8 |
| 20260509205515 | 26 | 290 | 1.6 | 3.2 | 0.00 | 0.00 | 0.00 | 44 | 1008.8 |
| 20260509204945 | 26 | 294 | 3.2 | 4.8 | 0.00 | 0.00 | 0.00 | 44 | 1009.0 |
| 20260509204415 | 26 | 248 | 1.6 | 1.6 | 0.00 | 0.00 | 0.00 | 48 | 1008.8 |
| 20260509203845 | 26 | 284 | 3.2 | 4.8 | 0.00 | 0.00 | 0.00 | 48 | 1008.9 |
| 20260509203345 | 25 | 228 | 0.0 | 3.2 | 0.00 | 0.00 | 0.00 | 53 | 1009.0 |
| 20260509202815 | 25 | 159 | 0.0 | 0.0 | 0.00 | 0.00 | 0.00 | 51 | 1008.8 |
| 20260509201745 | 24 | 292 | 1.6 | 3.2 | 0.00 | 0.00 | 0.00 | 51 | 1009.1 |
| 20260509200716 | 24 | 89 | 0.0 | 3.2 | 0.00 | 0.00 | 0.00 | 52 | 1009.1 |
| 20260509200216 | 24 | 273 | 0.0 | 1.6 | 0.00 | 0.00 | 0.00 | 52 | 1009.1 |
| 20260509195647 | 24 | 313 | 0.0 | 3.2 | 0.00 | 0.00 | 0.00 | 52 | 1009.3 |
| 20260509195118 | 24 | 295 | 1.6 | 8.0 | 0.00 | 0.00 | 0.00 | 52 | 1009.5 |
| 20260509194545 | 24 | 266 | 3.2 | 4.8 | 0.00 | 0.00 | 0.00 | 51 | 1009.5 |
| 20260509194015 | 25 | 263 | 4.8 | 8.0 | 0.00 | 0.00 | 0.00 | 51 | 1009.1 |
| 20260509193445 | 25 | 241 | 3.2 | 4.8 | 0.00 | 0.00 | 0.00 | 48 | 1009.5 |
| 20260509192945 | 26 | 233 | 4.8 | 9.7 | 0.00 | 0.00 | 0.00 | 49 | 1009.5 |
| 20260509192445 | 25 | 221 | 3.2 | 8.0 | 0.00 | 0.00 | 0.00 | 49 | 1009.5 |
| 20260509191945 | 25 | 211 | 3.2 | 4.8 | 0.00 | 0.00 | 0.00 | 49 | 1009.5 |
| 20260509191445 | 25 | 218 | 3.2 | 4.8 | 0.00 | 0.00 | 0.00 | 52 | 1009.5 |
| 20260509190945 | 25 | 239 | 4.8 | 8.0 | 0.00 | 0.00 | 0.00 | 52 | 1009.8 |
| 20260509190445 | 25 | 293 | 3.2 | 8.0 | 0.00 | 0.00 | 0.00 | 53 | 1009.5 |
| 20260509185915 | 24 | 256 | 4.8 | 9.7 | 0.00 | 0.00 | 0.00 | 51 | 1009.8 |
| 20260509185415 | 24 | 296 | 1.6 | 8.0 | 0.00 | 0.00 | 0.00 | 52 | 1009.8 |
| 20260509184845 | 23 | 264 | 4.8 | 11.3 | 0.00 | 0.00 | 0.00 | 53 | 1009.8 |
| 20260509184318 | 23 | 248 | 1.6 | 4.8 | 0.00 | 0.00 | 0.00 | 52 | 1010.2 |
| 20260509183245 | 23 | 208 | 1.6 | 4.8 | 0.00 | 0.00 | 0.00 | 55 | 1010.0 |
| 20260509182717 | 23 | 42 | 3.2 | 4.8 | 0.00 | 0.00 | 0.00 | 53 | 1009.8 |
| 20260509182216 | 24 | 266 | 3.2 | 8.0 | 0.00 | 0.00 | 0.00 | 52 | 1009.7 |
| 20260509181645 | 23 | 209 | 1.6 | 4.8 | 0.00 | 0.00 | 0.00 | 56 | 1009.8 |
| 20260509181116 | 23 | 216 | 3.2 | 8.0 | 0.00 | 0.00 | 0.00 | 54 | 1009.8 |
| 20260509180545 | 23 | 47 | 3.2 | 8.0 | 0.00 | 0.00 | 0.00 | 56 | 1010.0 |
| 20260509180019 | 23 | 211 | 1.6 | 3.2 | 0.00 | 0.00 | 0.00 | 56 | 1009.6 |
| 20260509175515 | 23 | 170 | 1.6 | 3.2 | 0.00 | 0.00 | 0.00 | 55 | 1009.5 |
| 20260509174945 | 23 | 193 | 1.6 | 3.2 | 0.00 | 0.00 | 0.00 | 58 | 1009.5 |
| 20260509174415 | 23 | 176 | 1.6 | 3.2 | 0.00 | 0.00 | 0.00 | 57 | 1009.5 |
| 20260509173845 | 23 | 208 | 3.2 | 8.0 | 0.00 | 0.00 | 0.00 | 60 | 1009.6 |
| 20260509172746 | 22 | 238 | 3.2 | 4.8 | 0.00 | 0.00 | 0.00 | 59 | 1009.6 |
| 20260509172245 | 22 | 301 | 3.2 | 8.0 | 0.00 | 0.00 | 0.00 | 60 | 1009.8 |
| 20260509171745 | 22 | 178 | 0.0 | 1.6 | 0.00 | 0.00 | 0.00 | 61 | 1009.8 |
| 20260509170715 | 22 | 296 | 3.2 | 8.0 | 0.00 | 0.00 | 0.00 | 60 | 1010.0 |
| 20260509165645 | 21 | 280 | 1.6 | 8.0 | 0.00 | 0.00 | 0.00 | 60 | 1010.2 |
| 20260509164617 | 22 | 270 | 0.0 | 1.6 | 0.00 | 0.00 | 0.00 | 62 | 1010.2 |
| 20260509164046 | 22 | 324 | 4.8 | 8.0 | 0.00 | 0.00 | 0.00 | 63 | 1010.2 |
| 20260509163515 | 21 | 75 | 0.0 | 3.2 | 0.00 | 0.00 | 0.00 | 63 | 1010.4 |
| 20260509162945 | 21 | 226 | 3.2 | 4.8 | 0.00 | 0.00 | 0.00 | 64 | 1010.5 |
| 20260509162415 | 21 | 37 | 1.6 | 3.2 | 0.00 | 0.00 | 0.00 | 66 | 1010.5 |
| 20260509161915 | 21 | 240 | 3.2 | 4.8 | 0.00 | 0.00 | 0.00 | 64 | 1010.3 |
| 20260509161345 | 20 | 305 | 1.6 | 3.2 | 0.00 | 0.00 | 0.00 | 66 | 1010.5 |
| 20260509160845 | 20 | 256 | 3.2 | 8.0 | 0.00 | 0.00 | 0.00 | 67 | 1010.5 |
| 20260509160315 | 20 | 297 | 3.2 | 11.3 | 0.00 | 0.00 | 0.00 | 67 | 1010.5 |
| 20260509155815 | 20 | 321 | 3.2 | 4.8 | 0.00 | 0.00 | 0.00 | 66 | 1010.5 |
| 20260509155245 | 20 | 257 | 1.6 | 3.2 | 0.00 | 0.00 | 0.00 | 69 | 1010.5 |
| 20260509154747 | 20 | 256 | 3.2 | 8.0 | 0.00 | 0.00 | 0.00 | 69 | 1010.8 |
| 20260509154246 | 19 | 279 | 0.0 | 4.8 | 0.00 | 0.00 | 0.00 | 70 | 1010.6 |
| 20260509153745 | 19 | 35 | 3.2 | 4.8 | 0.00 | 0.00 | 0.00 | 71 | 1010.6 |
| 20260509153215 | 19 | 320 | 3.2 | 9.7 | 0.00 | 0.00 | 0.00 | 71 | 1010.7 |
| 20260509152717 | 18 | 294 | 0.0 | 3.2 | 0.00 | 0.00 | 0.00 | 72 | 1010.8 |
| 20260509152146 | 19 | 17 | 3.2 | 4.8 | 0.00 | 0.00 | 0.00 | 71 | 1010.6 |
| 20260509151645 | 18 | 291 | 1.6 | 4.8 | 0.00 | 0.00 | 0.00 | 73 | 1010.7 |
| 20260509151146 | 18 | 308 | 3.2 | 8.0 | 0.00 | 0.00 | 0.00 | 73 | 1010.8 |
| 20260509150145 | 18 | 249 | 3.2 | 8.0 | 0.00 | 0.00 | 0.00 | 73 | 1010.2 |
| 20260509145645 | 18 | 301 | 4.8 | 11.3 | 0.00 | 0.00 | 0.00 | 73 | 1010.4 |
| 20260509145145 | 18 | 195 | 1.6 | 4.8 | 0.00 | 0.00 | 0.00 | 74 | 1010.3 |
| 20260509144645 | 18 | 253 | 8.0 | 12.9 | 0.00 | 0.00 | 0.00 | 74 | 1010.2 |
| 20260509144145 | 18 | 299 | 1.6 | 8.0 | 0.00 | 0.00 | 0.00 | 75 | 1010.2 |
| 20260509143615 | 18 | 12 | 3.2 | 8.0 | 0.00 | 0.00 | 0.00 | 75 | 1010.2 |
| 20260509143115 | 18 | 248 | 3.2 | 8.0 | 0.00 | 0.00 | 0.00 | 75 | 1010.2 |
| 20260509142545 | 18 | 272 | 1.6 | 8.0 | 0.00 | 0.00 | 0.00 | 75 | 1010.2 |
| 20260509142045 | 18 | 309 | 8.0 | 12.9 | 0.00 | 0.00 | 0.00 | 75 | 1010.2 |
| 20260509141515 | 17 | 241 | 3.2 | 8.0 | 0.00 | 0.00 | 0.00 | 76 | 1010.2 |
| 20260509141015 | 17 | 233 | 4.8 | 8.0 | 0.00 | 0.00 | 0.00 | 76 | 1010.2 |
| 20260509140445 | 17 | 242 | 3.2 | 8.0 | 0.00 | 0.00 | 0.00 | 77 | 1010.2 |
| 20260509135415 | 17 | 245 | 8.0 | 12.9 | 0.00 | 0.00 | 0.00 | 78 | 1010.2 |
| 20260509134848 | 17 | 273 | 8.0 | 11.3 | 0.00 | 0.00 | 0.00 | 78 | 1010.2 |
| 20260509134315 | 16 | 222 | 4.8 | 8.0 | 0.00 | 0.00 | 0.00 | 80 | 1010.2 |
| 20260509133745 | 16 | 323 | 4.8 | 11.3 | 0.00 | 0.00 | 0.00 | 80 | 1010.2 |
| 20260509133216 | 16 | 159 | 3.2 | 8.0 | 0.00 | 0.00 | 0.00 | 81 | 1010.2 |
| 20260509132715 | 16 | 310 | 1.6 | 8.0 | 0.00 | 0.00 | 0.00 | 81 | 1010.4 |
| 20260509132217 | 16 | 194 | 4.8 | 9.7 | 0.00 | 0.00 | 0.00 | 83 | 1010.2 |
| 20260509131145 | 15 | 229 | 1.6 | 4.8 | 0.00 | 0.00 | 0.00 | 84 | 1010.3 |
| 20260509130645 | 15 | 184 | 1.6 | 3.2 | 0.00 | 0.00 | 0.00 | 84 | 1010.4 |
| 20260509130145 | 15 | 194 | 1.6 | 3.2 | 0.00 | 0.00 | 0.00 | 85 | 1010.3 |
| 20260509125645 | 15 | 155 | 3.2 | 4.8 | 0.00 | 0.00 | 0.00 | 85 | 1010.8 |
| 20260509125145 | 15 | 310 | 4.8 | 9.7 | 0.00 | 0.00 | 0.00 | 85 | 1010.7 |
| 20260509124615 | 14 | 111 | 3.2 | 8.0 | 0.00 | 0.00 | 0.00 | 86 | 1010.5 |
| 20260509124045 | 14 | 207 | 3.2 | 8.0 | 0.00 | 0.00 | 0.00 | 86 | 1010.5 |
| 20260509123045 | 14 | 191 | 4.8 | 9.7 | 0.00 | 0.00 | 0.00 | 87 | 1010.5 |
| 20260509122515 | 14 | 175 | 8.0 | 9.7 | 0.00 | 0.00 | 0.00 | 87 | 1010.6 |
| 20260509122015 | 13 | 190 | 3.2 | 8.0 | 0.00 | 0.00 | 0.00 | 88 | 1010.5 |
| 20260509121515 | 13 | 198 | 3.2 | 4.8 | 0.00 | 0.00 | 0.00 | 89 | 1010.8 |
| 20260509121016 | 13 | 171 | 1.6 | 3.2 | 0.00 | 0.00 | 0.00 | 89 | 1010.8 |